This is the latest recevied weather packets stored in our database for station/object KB4RFE. If no packets are shown the sender has not sent any weather packets the latest 10 day(s).
| Time | Temp. | Humidity | Pressure | Rain* | Wind** | Luminosity | Snow |
|---|---|---|---|---|---|---|---|
| 1788305058 | 27.78° C | 84% | 1020.2 hPa | 0 mm | - | 16 W/m² | - |
| 1788304754 | 27.78° C | 84% | 1020.3 hPa | 0 mm | - | 19 W/m² | - |
| 1788304449 | 28.33° C | 84% | 1020.4 hPa | 0 mm | - | 23 W/m² | - |
| 1788304146 | 28.33° C | 83% | 1020.3 hPa | 0 mm | - | 26 W/m² | - |
| 1788303845 | 28.33° C | 83% | 1020.4 hPa | 0 mm | - | 20 W/m² | - |
| 1788303541 | 28.33° C | 82% | 1020.2 hPa | 0 mm | - | 32 W/m² | - |
| 1788303240 | 28.33° C | 82% | 1020.2 hPa | 0 mm | - | 34 W/m² | - |
| 1788302935 | 28.33° C | 79% | 1020.4 hPa | 0 mm | - | 37 W/m² | - |
| 1788302632 | 28.33° C | 80% | 1020.4 hPa | 0 mm | - | 39 W/m² | - |
| 1788302328 | 28.89° C | 81% | 1020.3 hPa | 0 mm | - | 41 W/m² | - |
| 1788302023 | 28.89° C | 81% | 1020.5 hPa | 0 mm | - | 44 W/m² | - |
| 1788301718 | 28.89° C | 79% | 1020.4 hPa | 0 mm | - | 46 W/m² | - |
| 1788301415 | 28.89° C | 79% | 1020.3 hPa | 0 mm | - | 49 W/m² | - |
| 1788301110 | 28.89° C | 78% | 1020.4 hPa | 0 mm | - | 51 W/m² | - |
| 1788300806 | 28.89° C | 77% | 1020.5 hPa | 0 mm | - | 53 W/m² | - |
| 1788300505 | 29.44° C | 76% | 1020.5 hPa | 0 mm | - | 55 W/m² | - |
| 1788300204 | 29.44° C | 76% | 1020.5 hPa | 0 mm | - | 58 W/m² | - |
| 1788299903 | 29.44° C | 78% | 1020.5 hPa | 0 mm | - | 59 W/m² | - |
| 1788299603 | 29.44° C | 76% | 1020.3 hPa | 0 mm | - | 61 W/m² | - |
| 1788299301 | 29.44° C | 76% | 1020.3 hPa | 0 mm | - | 62 W/m² | - |
| 1788299001 | 29.44° C | 77% | 1020.5 hPa | 0 mm | - | 70 W/m² | - |
| 1788298696 | 30° C | 76% | 1020.3 hPa | 0 mm | - | 95 W/m² | - |
| 1788298395 | 30° C | 76% | 1020.4 hPa | 0 mm | - | 66 W/m² | - |
| 1788298090 | 30° C | 73% | 1020.4 hPa | 0 mm | - | 67 W/m² | - |
| 1788297786 | 30.56° C | 73% | 1020.2 hPa | 0 mm | - | 71 W/m² | - |
* Rain latest hour (hover to see other rain measurements)
** Current wind speed in m/s (hover to see current wind gust speed)